ONEWEB-0711 (55174 NORAD) Tracking and Keplerian Element Data

This shows tracking and keplerian element data for the satellite.

Feedback or suggestion? Click here.




ElementValue
Catalog55174
NameONEWEB-0711
Epoch Orbit130
Epoch Day85.00001157
Epoch Year2023
RAAN257.0298
Inclination87.2494
Eccentricity0.0007213
Argument of Perigee320.1911
Mean Anonmoly70.2566
Mean Motion13.87990005
Decay Rate-0.00945671
L11 55174U 23004AL 23085.00001157 -.00945671 00000+0 -83883+0 0 9995
L22 55174 87.2494 257.0298 0007213 320.1911 70.2566 13.87990005 1303



Live tracking and technical data element details for ONEWEB-0711 (NORAD 55174). ONEWEB-0711 can be tracked NOW for your location showing map with azimuth and elevation plus other details from your city location.







IsCatalogInMostPopularTable: catalog: 55174, numindb: 11
Update: records affected: 1



GetName: 55174 ONEWEB-0711

Hit Count: updated at: Mon, 27 Mar 2023 06:20:20 GMT